CZ-6A DEB

Satellite information

Favourite Embed

Satellite Type and Status

DEBRISIN ORBIT

Key statistics

Satellite CZ-6A DEB at a glance.

Uptime

1128

Days in orbit

Revolutions

≈ 14.2

Per day

Orbit

SSO

Sun Synchronous Orbit

Inclination

98.8

Latest

Satellite identification and parameters

Extended collection of information and parameters for CZ-6A DEB.

Object identification

Identified? True

Debris? True

Object name: CZ-6A DEB

International designator: 2022-151AX

Object number (NORAD): 54304

Object ID (CCSDS): 54304

Country: PEOPLES REPUBLIC OF CHINA (PRC)

Current information (Y/N): Y

RCS size: SMALL

Orbital parameters

Period: 101.715 minutes

Inclination: 98.8385 deg

SMA: 7218.019 km

Apoapsis: 871.19 km

Periapsis: 808.577 km

RAAN: 350.6436 deg

Eccentricy: 0.0043373

Argument of periapsis: 126.2627 deg

Mean anomaly: 234.2566 deg

Mean motion: 14.15714781 rev/day

Mean motion (dot): 0.0000285 rev/day2

B* drag term: 0.0014614 1/REarth

Two-line elements (TLE)

Creation date: Dec. 12, 2025, 7:16 a.m.

Reference frame: TEME

Reference center: EARTH

Epoch: Dec. 11, 2025, 11:30 p.m. UTC

TLE line 0: 0 CZ-6A DEB

TLE line 1: 1 54304U 22151AX 25345.97925375 .00002850 00000-0 14614-2 0 9996

TLE line 2: 2 54304 98.8385 350.6436 0043373 126.2627 234.2566 14.15714781158328

Live tracking on map

Real-time ground track for satellite CZ-6A DEB.

In-orbit conjunctions

A list of the most updated potential collisions computed for object CZ-6A DEB.

Target Orbit TCA Probability of collision Miss distance Type
OPS 4988 DEB LEO 2025-09-18 06:30:23 0.0001778463 53.0 (m) DEBRIS
METEOR 2-8 DEB LEO 2025-09-03 04:14:30 0.0005285547 39.0 (m) DEBRIS
COSMOS 1275 DEB LEO 2025-04-09 16:41:40 0.0001294761 178.0 (m) DEBRIS
FENGYUN 1C DEB SSO 2024-11-13 00:58:57 0.0001073612 122.0 (m) DEBRIS

Associated space launch

Chinese satellite reported for atmospheric/ocean/environmental/spatial parameter research purposes, details TBD.

CZ-6A DEB was lifted into orbit during the mission ‘Long March 6A | Yunhai 3’, on board a Long March 6A space rocket.

The launch took place on Nov. 11, 2022, 10:52 p.m. from Launch Complex 9A.

For more information about the launch, click the button.

Launch to space Long March 6A | Yunhai 3
Long March 6A | Yunhai 3

Agency: N/A

Status: Launch Successful

Launch date: Nov. 11, 2022, 10:52 p.m. UTC

Rocket: Long March 6A

Launch pad: Launch Complex 9A

Location: Taiyuan Satellite Launch Center, People's Republic of China

...

Latest news about this satellite

There are no fresh news available about this satellite. Check back as we update our databases every day.


Newsletter sign-up

Weekly statistics, charts and insights to help you stay on top of the space industry.